Regional Weather Roundup
Issued by NWS Memphis, TN

Home | Current Version | Previous Version | Text Only | Print | Product List | Glossary On
Versions: 1 2 3 4 5 6 7 8 9 10 11 12 13 14 15 16 17 18 19 20 21 22 23 24 25 26 27 28 29 30 31 32 33 34 35 36 37 38 39 40 41 42 43 44 45 46 47 48 49 50
000
ASUS44 KMEG 180500
RWRMEG
MEMPHIS CWA HOURLY WEATHER ROUNDUP
NATIONAL WEATHER SERVICE MEMPHIS TN
1200 AM CDT FRI AUG 18 2017

...WEST TENNESSEE...

CITY           SKY/WX    TMP DP  RH WIND       PRES   REMARKS
MEMPHIS INTL   PTCLDY    76  73  91 W3        29.97S
NWS MEMPHIS      N/A     74 N/A N/A MISG        N/A
JACKSON        PTCLDY    75  75 100 SW6       29.96S
DYERSBURG      CLEAR     76  74  93 SW6       29.95S


...EASTERN ARKANSAS...

CITY           SKY/WX    TMP DP  RH WIND       PRES   REMARKS
JONESBORO      PTCLDY    77  75  93 W5        29.95S
WEST MEMPHIS   CLEAR     76  75  97 CALM      29.96S
BATESVILLE     CLEAR     75  72  88 SW8       29.98S
NEWPORT        CLEAR     76  73  91 W8        29.97S
WALNUT RIDGE   PTCLDY    75  72  88 SW6       29.96R
BLYTHEVILLE    CLEAR     76  75  97 SW3       29.95S
SEARCY           N/A    N/A N/A N/A MISG        N/A
PINE BLUFF     CLEAR     75  72  90 SW3       30.00S
MONTICELLO     PTCLDY    76  72  87 W5        30.01S


...NORTH MISSISSIPPI...

CITY           SKY/WX    TMP DP  RH WIND       PRES   REMARKS
TUPELO         PTCLDY    78  74  87 SW6       29.99R
TUNICA           N/A     73  72  94 SW6       29.99S
CLARKSDALE       N/A     75  75 100 SW5       29.99F
GREENWOOD      CLEAR     73  73 100 SW5       30.01R
COLUMBUS       PTCLDY    76  76 100 SW8       29.99S
STARKVILLE     PTCLDY    73  73 100 CALM      30.02S
GOLDEN TRIANGL PTCLDY    77  70  78 SW5         N/A


...SOUTHEAST MISSOURI...

CITY           SKY/WX    TMP DP  RH WIND       PRES   REMARKS
KENNETT        CLEAR     75  73  94 W6        29.93S
MALDEN         CLEAR     75  72  88 SW5       29.95S
WEST PLAINS    CLEAR     66  63  90 CALM      30.01S
POPLAR BLUFF   PTCLDY    72  71  97 CALM      29.94S
CAPE GIRARDEAU FOG       70  69  97 W3        29.92S VSB 1


...NORTHWEST ALABAMA...

CITY           SKY/WX    TMP DP  RH WIND       PRES   REMARKS
MUSCLE SHOALS  PTCLDY    78  74  87 SW7       29.99S


...MIDDLE TENNESSEE...

CITY           SKY/WX    TMP DP  RH WIND       PRES   REMARKS
NASHVILLE      MOCLDY    78  75  90 SW7       29.94F
CLARKSVILLE    MOCLDY    77  74  90 SW5       29.92F


...WESTERN KENTUCKY...

CITY           SKY/WX    TMP DP  RH WIND       PRES   REMARKS
PADUCAH        CLEAR     74  70  87 SW6       29.91S
FORT CAMPBELL  CLOUDY    76  76 100 SW8       29.92S


...CENTRAL ARKANSAS...

CITY           SKY/WX    TMP DP  RH WIND       PRES   REMARKS
LITTLE ROCK    PTCLDY    75  75 100 SW6       29.99F


SKY/WX REPORTED AS FAIR MEANS FEW OR NO CLOUDS BELOW
12 THOUSAND FEET.





USA.gov is the U.S. government's official web portal to all federal, state and local government web resources and services.